Tracking 29892 objects as of 21-Nov-2024
HD Live streaming from Space Station
objects crossing your sky now

STARLINK-3241

Track STARLINK-3241 now!
10-day predictions
STARLINK-3241 is classified as:


NORAD ID: 49745
Int'l Code: 2021-115X
Perigee: 545.9 km
Apogee: 547.8 km
Inclination: 53.2 °
Period: 95.4 minutes
Semi major axis: 6917 km
RCS: Unknown
Launch date: December 2, 2021
Source: United States (US)
Launch site: AIR FORCE EASTERN TEST RANGE (AFETR)
Your satellite tracking list
Your tracking list is empty




NASA's NSSDC Master Catalog

Two Line Element Set (TLE):
1 49745U 21115X   24325.80932470  .00000864  00000-0  72374-4 0  9993
2 49745  53.2153 116.4241 0001343  88.1095 272.0051 15.08847746165101
Source of the keplerian elements: AFSPC